Temp
61 60 60 60 60 60 59 60 60 60 60 60 60 60 60 60 59 53 51 63 62 69 69 66 66 64 61 55 57 56 43 35 41 47 51 60 56 66 71 69 71 73 71 77 80
60 60 60 60 59 59 59 59 59 60 60 59 60 60 60 60 51 51 64 71 70 71 63 63 61 62 54 52 53 49 39 43 53 55 54 57 56 64 65 66 66 69 75 79 76
60 60 60 59 59 59 59 59 59 59 59 59 59 59 59 57 49 60 72 71 71 70 64 64 62 58 49 51 50 46 44 52 55 57 57 57 59 64 61 59 64 66 69 75 74
59 59 59 58 59 59 59 59 59 59 59 59 59 59 60 52 43 62 72 71 71 67 65 62 59 52 47 46 53 44 54 55 57 59 57 56 60 60 61 63 69 70 71 72 72
59 59 58 58 59 58 58 58 58 58 58 58 59 60 55 49 53 66 73 71 66 66 62 59 54 49 44 48 51 44 50 55 57 56 54 58 57 59 58 67 70 71 72 70 70
58 58 58 58 58 58 58 57 57 57 58 59 60 60 52 45 66 69 68 64 64 59 57 57 54 56 50 48 46 52 52 53 54 53 53 53 57 56 62 67 67 69 68 68 69
58 58 57 58 58 58 58 57 57 57 58 60 61 59 51 56 67 66 66 60 64 65 63 64 62 57 53 50 53 55 48 50 51 52 53 55 52 53 62 63 63 65 66 68 68
58 57 57 57 57 58 58 57 57 57 59 61 61 54 50 65 63 62 61 65 67 66 66 68 64 56 51 53 53 47 44 35 47 52 56 51 42 57 63 60 61 65 65 69 66
58 57 57 57 57 57 57 56 57 58 59 61 52 50 53 66 64 69 67 64 66 67 66 74 62 54 51 44 39 40 34 37 43 50 52 48 46 57 63 61 60 59 61 64 64
57 57 56 56 57 57 56 57 59 57 59 61 61 50 57 62 68 72 67 69 65 63 62 58 50 45 41 39 33 37 35 39 41 48 51 47 47 55 60 58 60 59 59 62 62
57 57 56 56 56 56 52 52 54 52 52 52 56 57 61 67 71 69 72 67 63 57 48 49 43 39 44 45 49 47 43 40 46 52 47 47 48 53 57 55 55 59 58 59 62
57 56 56 56 56 55 49 54 57 58 50 59 61 60 66 65 60 66 71 59 55 48 48 44 39 51 53 51 48 45 41 41 47 51 47 46 47 54 56 56 59 60 59 58 61
56 56 56 56 55 53 53 59 62 58 47 57 64 63 64 64 59 61 66 60 54 48 47 42 47 54 51 47 46 44 40 42 43 49 50 46 43 47 54 55 57 59 59 58 60
56 56 56 54 56 51 57 61 59 59 40 54 59 65 66 62 57 70 68 61 52 48 48 45 52 50 47 46 46 40 49 49 46 42 34 45 32 45 49 51 54 59 61 62 59
56 56 55 54 51 54 63 57 56 58 26 58 59 68 64 57 60 61 67 61 48 50 47 45 46 46 44 47 51 44 52 48 46 41 39 38 31 36 46 46 51 54 58 60 61
56 55 55 52 47 55 58 56 58 41 31 50 57 54 53 56 57 59 58 59 56 48 47 45 53 50 48 52 51 52 45 43 39 35 30 39 36 38 42 47 51 53 55 60 63
55 54 52 57 58 56 57 55 40 32 52 47 47 52 49 49 52 53 49 44 38 34 33 42 44 50 53 44 48 46 37 29 25 26 27 41 36 40 48 51 52 53 55 57 60
54 53 53 58 53 57 55 46 33 46 46 54 52 50 45 49 49 48 45 38 44 40 34 30 29 46 52 45 40 39 38 29 23 25 24 37 28 37 51 57 57 57 56 57 56
52 50 53 58 58 55 50 34 35 44 52 49 49 43 43 48 46 43 41 40 44 41 31 32 33 51 51 50 46 37 33 41 32 32 28 31 37 47 51 50 53 52 54 54 54
43 46 54 60 58 53 43 40 43 54 55 52 40 45 38 41 40 39 39 46 44 45 43 37 30 46 49 49 49 43 45 32 34 25 23 28 31 35 44 45 48 48 49 51 54
45 49 60 58 57 47 36 39 48 57 55 49 44 42 43 39 40 36 41 47 47 43 42 37 35 37 43 39 37 39 38 37 36 33 26 24 29 42 45 45 46 48 51 51 52
41 44 59 57 44 37 38 45 51 54 56 53 50 46 42 41 38 38 38 44 50 46 37 39 36 30 36 45 48 44 40 37 30 26 32 31 30 50 47 50 48 48 53 55 55
39 40 54 55 36 35 42 47 51 50 50 49 47 48 45 39 30 39 42 49 49 44 40 40 34 28 30 36 41 38 42 39 37 35 30 27 30 49 49 52 51 50 51 54 56
41 39 44 43 41 37 36 39 44 53 51 50 47 46 41 38 40 37 42 46 47 47 53 45 35 33 29 35 39 33 37 41 34 30 30 32 35 42 48 48 50 50 52 52 53
42 39 40 35 38 39 36 40 42 41 48 47 43 43 39 32 33 34 38 42 45 48 42 41 33 34 36 37 37 36 37 38 34 35 31 35 35 42 46 46 48 51 52 52 52
44 42 39 37 39 38 39 38 40 43 43 41 39 44 41 34 35 35 38 39 35 44 39 39 33 35 34 38 38 35 39 37 39 41 39 38 36 45 44 46 44 47 50 52 53
48 48 44 38 37 35 36 40 41 42 45 47 43 39 37 40 45 46 46 46 44 37 34 33 32 30 28 38 34 30 35 35 36 40 37 35 37 42 42 43 43 44 46 48 51
MSLP
1018.58 1018.15 1017.79 1017.44 1017.10 1016.78 1016.49 1016.20 1015.91 1015.67 1015.45 1015.20 1014.89 1014.54 1014.18 1013.84 1013.38 1012.89 1012.27 1010.74 1010.57 1010.26 1010.30 1010.13 1010.08 1010.20 1010.50 1010.81 1010.90 1011.26 1012.51 1012.72 1011.88 1011.10 1010.26 1009.11 1008.59 1007.57 1007.05 1006.59 1006.37 1005.87 1005.60 1005.07 1003.31
1018.51 1018.02 1017.59 1017.19 1016.86 1016.55 1016.26 1015.96 1015.63 1015.37 1015.16 1014.96 1014.71 1014.35 1014.01 1013.74 1013.50 1012.45 1010.66 1010.28 1010.34 1010.29 1010.37 1010.28 1010.27 1010.28 1010.74 1010.89 1010.99 1011.57 1012.41 1011.97 1011.18 1010.61 1009.92 1009.06 1008.62 1007.65 1007.23 1006.69 1006.21 1005.88 1005.40 1004.92 1004.70
1018.43 1017.95 1017.46 1017.03 1016.65 1016.29 1015.96 1015.66 1015.44 1015.21 1014.99 1014.80 1014.53 1014.04 1013.73 1013.55 1013.15 1011.12 1010.22 1010.35 1010.33 1010.31 1010.40 1010.37 1010.40 1010.51 1010.87 1011.04 1011.16 1011.58 1011.75 1011.18 1010.63 1010.20 1009.84 1009.19 1008.33 1007.65 1007.29 1006.60 1006.27 1005.87 1005.57 1005.23 1005.32
1018.37 1017.81 1017.33 1016.92 1016.47 1016.10 1015.77 1015.48 1015.23 1015.00 1014.78 1014.52 1014.15 1013.73 1013.33 1013.29 1012.49 1010.65 1010.30 1010.42 1010.50 1010.51 1010.49 1010.47 1010.59 1010.87 1011.30 1011.60 1011.60 1011.55 1011.14 1011.10 1010.74 1010.09 1009.98 1009.51 1008.58 1007.79 1007.28 1006.64 1006.21 1005.83 1005.73 1005.56 1005.86
1018.37 1017.76 1017.29 1016.81 1016.31 1015.93 1015.55 1015.22 1014.98 1014.79 1014.66 1014.40 1013.99 1013.55 1013.09 1012.72 1011.67 1010.52 1010.48 1010.58 1010.67 1010.62 1010.68 1010.74 1010.90 1011.17 1011.63 1011.72 1011.56 1011.59 1011.47 1011.22 1010.79 1010.35 1009.97 1009.29 1008.66 1007.88 1007.11 1006.56 1006.08 1005.69 1005.66 1005.80 1006.01
1018.36 1017.75 1017.21 1016.68 1016.15 1015.74 1015.41 1015.15 1014.89 1014.69 1014.57 1014.29 1013.91 1013.68 1013.35 1012.11 1010.47 1010.34 1010.55 1010.76 1010.81 1010.80 1010.72 1010.77 1010.76 1010.86 1011.39 1011.66 1011.83 1011.62 1011.38 1011.04 1010.63 1010.26 1009.73 1009.21 1008.31 1007.83 1006.86 1006.34 1005.99 1005.62 1005.38 1005.28 1005.76
1018.24 1017.64 1017.07 1016.51 1016.00 1015.53 1015.18 1014.85 1014.66 1014.52 1014.38 1014.14 1013.85 1013.81 1013.17 1011.45 1010.53 1010.43 1010.69 1010.68 1010.60 1010.77 1010.64 1010.34 1010.48 1010.83 1011.27 1011.68 1011.52 1011.56 1011.42 1010.94 1010.55 1010.10 1009.56 1008.91 1008.16 1007.60 1006.64 1006.40 1005.93 1005.68 1005.19 1004.87 1005.14
1017.92 1017.38 1016.85 1016.30 1015.77 1015.26 1014.88 1014.58 1014.36 1014.32 1014.20 1014.02 1013.96 1013.88 1012.68 1010.74 1010.66 1010.87 1010.93 1010.61 1010.20 1010.37 1010.60 1010.16 1010.29 1010.85 1011.40 1011.68 1011.86 1012.07 1012.00 1011.90 1010.94 1010.42 1009.59 1009.31 1008.61 1007.37 1006.32 1006.12 1005.70 1005.38 1005.07 1004.58 1004.38
1017.71 1017.16 1016.61 1016.06 1015.50 1014.94 1014.44 1014.15 1013.83 1013.92 1013.93 1013.96 1014.03 1013.73 1011.82 1010.73 1010.63 1009.62 1010.31 1010.44 1010.04 1009.87 1010.04 1010.11 1010.31 1011.14 1011.76 1012.32 1012.85 1012.76 1012.86 1012.21 1011.35 1010.42 1009.99 1009.61 1008.68 1007.02 1006.29 1005.91 1005.79 1005.45 1004.92 1004.50 1004.26
1017.54 1016.99 1016.43 1015.82 1015.26 1014.68 1014.13 1013.69 1013.60 1013.78 1013.89 1013.82 1013.65 1013.59 1011.40 1010.40 1009.76 1009.36 1009.46 1009.67 1010.03 1009.92 1010.19 1010.35 1011.21 1011.80 1012.61 1013.00 1012.95 1012.57 1012.60 1012.05 1011.38 1010.23 1009.50 1009.23 1008.37 1007.11 1006.18 1005.88 1005.53 1005.33 1004.75 1004.33 1003.87
1017.46 1016.77 1016.18 1015.53 1014.93 1014.55 1014.09 1013.97 1014.11 1013.71 1013.52 1013.02 1012.69 1012.24 1011.03 1010.00 1009.49 1009.11 1008.86 1009.46 1009.83 1010.24 1010.89 1011.21 1012.10 1012.41 1012.13 1012.06 1011.96 1011.95 1011.91 1011.53 1010.48 1010.02 1009.70 1008.93 1007.91 1006.67 1006.16 1005.57 1005.25 1004.82 1004.78 1004.14 1003.55
1017.30 1016.59 1015.85 1015.14 1014.61 1014.25 1014.34 1014.15 1013.54 1013.32 1012.86 1011.83 1011.68 1011.50 1010.55 1010.25 1009.93 1008.92 1008.76 1009.55 1010.04 1010.57 1011.14 1011.95 1012.02 1011.30 1011.22 1011.24 1011.41 1011.32 1011.22 1010.85 1010.00 1009.59 1009.30 1008.43 1007.17 1006.33 1005.72 1005.33 1004.81 1004.28 1004.04 1003.81 1003.31
1017.04 1016.21 1015.45 1014.81 1014.36 1014.23 1014.22 1013.46 1012.94 1012.92 1013.13 1011.64 1010.87 1010.43 1009.91 1010.00 1009.68 1008.95 1008.91 1008.89 1009.79 1010.53 1011.03 1011.61 1011.05 1010.72 1010.97 1010.88 1010.88 1010.67 1010.62 1010.36 1009.91 1009.18 1008.75 1008.27 1006.61 1005.98 1005.36 1004.83 1004.29 1003.46 1003.02 1003.15 1002.95
1016.83 1016.15 1015.26 1014.60 1014.38 1014.53 1013.67 1012.77 1012.81 1012.85 1013.11 1011.62 1010.44 1009.74 1009.48 1009.62 1009.57 1009.08 1008.91 1009.08 1009.58 1010.15 1010.57 1010.86 1010.35 1010.44 1010.53 1010.46 1010.26 1009.89 1009.73 1009.61 1009.56 1009.65 1008.91 1008.54 1005.50 1005.82 1005.24 1004.38 1003.96 1002.85 1002.29 1002.11 1002.19
1016.52 1015.90 1015.22 1014.66 1014.79 1014.19 1013.19 1012.73 1012.48 1012.87 1013.09 1011.44 1010.66 1009.89 1010.07 1010.56 1010.38 1009.97 1009.75 1009.26 1010.13 1010.49 1010.85 1010.64 1010.42 1010.28 1010.07 1009.73 1009.48 1009.19 1009.10 1009.26 1009.45 1009.39 1008.94 1008.91 1008.32 1004.97 1004.59 1003.83 1003.14 1002.71 1001.91 1001.33 1001.19
1016.05 1015.42 1015.06 1014.84 1014.87 1013.47 1012.89 1012.62 1012.65 1013.65 1013.05 1012.14 1011.38 1011.02 1011.17 1010.97 1010.97 1010.62 1010.50 1010.51 1010.76 1010.95 1010.92 1010.87 1010.08 1009.80 1009.39 1009.32 1009.40 1009.25 1009.27 1009.24 1009.48 1009.78 1008.77 1008.58 1008.11 1003.47 1004.00 1002.90 1002.13 1001.99 1001.53 1000.80 1000.51
1015.55 1014.76 1014.64 1014.38 1013.94 1013.13 1012.61 1013.08 1014.04 1014.00 1013.46 1013.08 1012.50 1012.07 1011.96 1011.78 1011.59 1011.45 1011.50 1011.77 1012.23 1012.31 1012.09 1011.52 1010.35 1009.71 1009.47 1009.67 1009.59 1009.81 1010.41 1010.61 1010.53 1010.41 1008.44 1007.32 1006.85 1003.84 1002.94 1002.17 1001.85 1001.66 1001.22 1000.59 1000.19
1015.37 1014.58 1014.33 1013.57 1013.40 1013.23 1013.54 1014.14 1014.69 1014.42 1013.68 1013.13 1012.78 1012.60 1012.61 1012.45 1012.24 1012.25 1012.33 1012.53 1012.73 1012.96 1013.02 1012.66 1011.35 1010.25 1009.93 1010.36 1010.48 1010.31 1010.86 1011.67 1010.93 1010.21 1009.16 1007.81 1005.88 1003.45 1001.91 1001.05 1001.13 1001.27 1001.12 1000.68 1000.40
1015.46 1014.70 1014.30 1013.62 1013.11 1013.24 1014.57 1015.52 1015.20 1014.56 1013.69 1013.17 1013.00 1012.93 1013.06 1013.01 1012.98 1012.98 1012.82 1012.69 1012.93 1013.35 1013.60 1013.15 1011.80 1010.40 1010.11 1009.59 1010.25 1010.36 1010.69 1010.59 1011.06 1010.28 1009.58 1007.18 1005.08 1003.21 1001.92 1001.34 1001.26 1001.14 1001.23 1000.98 1000.43
1017.18 1016.16 1014.50 1013.23 1012.98 1013.78 1015.09 1015.74 1015.01 1014.12 1013.50 1013.05 1013.24 1013.31 1013.54 1013.45 1013.55 1013.45 1012.99 1012.61 1012.91 1013.21 1013.28 1013.33 1012.17 1010.69 1010.01 1009.92 1009.12 1009.48 1009.96 1010.85 1010.95 1009.96 1008.78 1006.65 1005.24 1003.64 1002.22 1001.63 1001.36 1001.28 1001.15 1000.79 1000.22
1017.56 1016.43 1014.03 1013.38 1013.36 1014.93 1016.21 1015.99 1014.95 1013.88 1013.49 1013.11 1013.04 1013.35 1013.62 1013.73 1013.74 1013.73 1013.18 1012.50 1012.48 1012.93 1013.40 1013.49 1013.43 1011.54 1010.85 1009.88 1009.09 1009.44 1009.67 1010.35 1010.48 1009.92 1008.97 1007.01 1004.46 1002.87 1002.13 1001.67 1001.54 1001.33 1000.89 1000.52 1000.26
1019.43 1017.78 1014.64 1013.85 1015.30 1017.04 1017.08 1016.39 1015.30 1014.12 1013.50 1013.03 1012.94 1013.30 1013.67 1013.77 1013.85 1013.63 1013.07 1012.61 1012.06 1012.40 1013.09 1013.25 1013.14 1012.03 1010.53 1009.01 1009.09 1009.32 1009.42 1010.27 1010.15 1009.49 1008.62 1007.42 1003.75 1002.63 1002.31 1001.76 1001.35 1001.06 1000.44 1000.04 999.94
1020.63 1019.01 1015.67 1015.29 1017.84 1018.73 1017.85 1016.88 1015.82 1014.83 1014.15 1013.96 1013.84 1013.62 1013.79 1014.16 1014.12 1013.40 1012.75 1012.01 1012.11 1012.47 1012.56 1013.15 1012.88 1012.12 1010.30 1009.37 1008.75 1008.95 1009.11 1009.67 1009.46 1009.14 1008.17 1007.38 1004.03 1002.44 1002.40 1001.57 1000.91 1000.93 1000.56 1000.09 999.45
1021.06 1020.25 1018.55 1018.47 1019.30 1019.55 1019.27 1017.72 1016.34 1015.18 1014.67 1014.69 1014.46 1014.02 1014.39 1014.41 1014.30 1013.46 1012.74 1012.17 1012.08 1012.03 1011.87 1012.40 1012.02 1011.82 1010.95 1009.85 1009.61 1009.40 1009.10 1009.21 1009.20 1008.46 1007.15 1005.65 1003.88 1003.20 1002.38 1001.60 1001.07 1000.67 1000.28 999.79 999.53
1021.52 1021.70 1021.25 1020.63 1019.95 1020.00 1019.66 1018.19 1017.05 1016.25 1015.39 1015.08 1014.75 1015.17 1015.20 1014.90 1014.31 1013.56 1013.03 1012.43 1011.76 1011.28 1011.36 1011.80 1011.57 1011.44 1010.67 1009.98 1009.34 1008.66 1008.56 1008.26 1008.05 1007.32 1006.48 1004.97 1004.32 1002.74 1002.58 1002.39 1001.66 1000.57 999.88 999.42 999.40
1021.91 1022.01 1021.78 1021.34 1020.79 1020.41 1019.42 1018.23 1017.50 1016.91 1016.43 1015.67 1015.57 1015.18 1015.04 1015.01 1014.61 1013.32 1013.12 1012.41 1012.18 1011.53 1011.59 1011.88 1011.65 1011.29 1010.05 1008.93 1008.46 1008.07 1007.93 1007.83 1007.25 1006.48 1005.90 1005.16 1003.96 1003.46 1003.22 1002.97 1002.04 1001.16 1000.30 999.41 998.83
1021.70 1021.91 1021.84 1021.09 1020.72 1020.58 1019.67 1018.71 1017.93 1017.65 1016.39 1015.70 1015.51 1015.24 1014.82 1014.00 1013.48 1012.58 1012.05 1011.68 1011.80 1011.86 1012.03 1012.48 1012.47 1011.73 1009.46 1008.55 1008.22 1007.73 1007.46 1007.69 1007.33 1006.74 1006.45 1005.46 1004.90 1004.26 1003.47 1002.90 1002.04 1000.95 1000.05 998.98 997.81
Wind_Speed
18 18 17 16 16 16 14 13 12 11 10 10 11 13 14 15 15 2 5 6 2 3 3 5 1 1 3 1 2 3 3 1 3 4 5 10 6 3 3 6 4 3 1 7 18
19 19 19 18 17 16 14 12 11 10 9 9 10 13 14 13 3 4 9 7 6 3 2 4 5 5 2 1 1 5 4 6 7 5 7 8 6 16 5 9 3 4 6 7 10
21 20 20 20 18 16 14 12 11 10 9 9 10 13 13 7 3 4 2 4 5 1 1 1 2 1 2 3 1 2 4 5 6 6 5 6 8 6 4 7 4 7 8 8 5
22 22 22 21 19 17 15 14 12 11 10 10 11 13 15 2 3 3 6 6 3 4 4 2 5 4 4 5 5 3 4 3 8 6 7 7 6 8 6 8 5 7 6 4 5
23 23 22 21 19 17 16 14 13 12 11 10 11 12 5 4 5 4 7 3 2 3 3 3 4 2 3 4 5 2 3 6 7 10 7 8 7 10 6 9 6 7 6 4 5
22 23 22 21 19 18 16 15 13 13 11 9 8 7 1 2 2 6 6 1 3 1 0 1 2 2 3 3 0 4 6 8 6 9 6 4 9 4 7 7 6 7 8 7 6
21 21 23 20 19 18 16 14 12 11 10 8 3 2 2 6 3 5 7 3 2 3 4 4 2 1 2 5 3 5 8 9 6 5 7 4 8 7 12 4 8 7 10 10 6
23 22 22 21 19 18 16 15 13 10 8 6 1 1 4 4 0 2 2 7 6 7 4 11 1 2 2 2 7 5 4 4 7 7 7 2 8 16 14 8 13 11 9 13 8
24 22 22 21 19 17 17 15 11 5 5 1 1 2 6 1 2 8 10 8 3 5 4 8 5 5 2 1 5 4 5 6 6 1 5 1 12 13 17 13 12 7 8 9 8
24 23 22 22 20 18 18 8 5 4 2 3 3 3 4 4 4 3 9 8 6 2 4 3 5 2 3 3 7 10 5 6 8 7 10 10 15 16 14 9 14 9 8 9 9
25 24 22 21 20 15 9 1 6 4 2 5 6 4 7 5 5 5 5 5 3 3 5 2 2 7 12 10 14 12 11 12 12 11 6 13 17 18 12 9 11 12 8 9 11
25 24 23 22 19 12 2 3 3 4 8 6 6 6 8 1 7 7 6 5 5 8 2 2 7 16 11 9 8 11 13 14 9 9 6 14 18 18 13 11 15 15 11 8 10
25 25 24 21 19 3 0 4 5 2 2 7 4 4 4 6 6 8 7 6 7 4 7 8 10 3 7 5 7 7 7 10 13 17 12 11 16 12 8 7 8 11 11 6 10
27 25 24 24 3 3 4 2 6 3 5 6 5 4 6 5 4 3 8 6 3 8 6 7 6 4 7 8 7 15 10 12 11 8 12 4 22 15 9 14 13 19 19 17 10
29 24 19 9 2 0 4 7 4 5 5 5 3 3 9 5 7 9 5 8 2 5 1 9 4 8 8 13 12 13 13 14 12 11 14 3 9 2 4 12 14 14 18 17 13
30 26 15 1 1 6 7 5 5 7 1 6 4 7 7 5 5 5 6 5 4 4 4 5 6 5 6 3 1 7 6 4 1 2 14 11 12 10 8 14 9 7 12 16 15
33 26 5 1 3 4 4 5 6 5 6 6 4 7 5 5 10 4 6 6 1 6 4 6 4 1 4 4 6 7 5 4 4 1 9 7 12 19 7 7 8 9 10 13 13
34 16 3 4 2 5 5 7 7 2 3 6 5 7 3 5 5 5 7 4 1 0 2 3 7 6 7 6 6 7 7 4 7 4 5 5 7 8 15 17 10 8 10 9 9
22 5 4 4 2 3 7 6 5 2 4 5 6 3 4 3 4 5 5 4 5 3 0 4 6 14 19 20 3 2 5 5 5 6 8 6 7 7 10 10 4 3 3 7 10
4 5 4 7 3 6 7 3 3 4 5 4 3 2 4 4 3 4 3 3 4 6 4 4 12 9 6 4 10 9 6 3 4 5 6 5 5 7 4 1 3 4 6 8 9
4 5 4 8 4 7 4 5 5 6 5 3 3 5 6 5 4 3 6 8 5 5 5 3 5 5 6 6 5 1 2 2 4 4 4 5 5 6 6 4 5 7 8 8 8
4 4 5 5 7 2 1 3 6 4 6 5 3 4 5 4 5 6 8 8 6 4 5 7 4 7 16 18 10 9 11 5 4 4 4 3 11 9 4 5 5 8 10 10 9
4 4 5 6 4 5 7 7 4 6 6 5 5 5 4 4 6 5 6 6 5 5 3 4 3 6 9 6 2 2 4 8 8 6 12 9 7 2 7 8 10 10 11 13 11
3 5 6 6 1 3 4 5 5 6 5 9 7 5 6 5 5 9 14 4 3 10 19 8 7 12 12 13 7 9 12 14 8 5 10 18 23 15 17 20 14 15 14 13 9
4 2 1 6 4 8 3 4 4 5 3 6 5 7 8 6 5 6 5 14 8 9 1 6 6 8 12 19 20 21 20 18 16 17 13 19 17 17 9 11 19 20 15 9 9
2 3 4 5 5 4 3 3 2 4 4 6 4 11 9 7 8 20 16 12 7 3 1 3 3 4 7 19 18 21 13 10 15 12 11 14 19 8 8 11 14 16 15 9 13
1 2 2 4 3 2 4 3 9 11 8 5 7 6 7 11 12 20 18 15 11 4 2 1 2 3 7 7 10 7 6 5 13 13 10 8 5 12 13 15 15 18 18 18 15
Wind_Direction
352 349 348 347 345 344 342 340 336 333 328 322 317 313 311 315 316 307 240 224 207 224 287 289 144 171 109 357 218 110 43 302 279 10 284 304 327 114 291 263 334 2 342 285 356
349 347 345 344 344 342 341 339 335 330 325 320 314 307 307 318 301 271 244 282 210 244 302 0 357 1 39 274 58 108 129 231 203 218 254 274 273 295 294 309 227 298 316 353 53
346 345 345 345 342 340 337 335 333 331 328 322 313 304 310 313 297 312 265 187 213 277 252 309 331 14 31 4 335 129 197 239 272 271 269 275 296 264 295 296 263 290 310 331 43
345 344 345 343 340 338 335 333 331 330 329 327 321 316 320 188 119 305 161 199 253 320 322 24 15 26 41 359 333 288 268 326 307 328 323 296 299 306 217 257 272 284 282 295 340
344 344 345 343 339 336 332 331 329 328 333 335 331 330 348 19 256 260 193 212 314 349 356 26 51 66 18 308 334 188 317 315 280 288 277 281 266 267 223 266 271 297 319 290 289
340 343 345 343 339 335 331 327 323 325 329 333 326 328 3 49 219 193 178 202 265 249 222 222 209 200 134 299 48 281 277 294 282 288 250 261 284 322 273 226 260 269 283 266 239
340 342 345 343 338 334 329 322 318 319 322 328 326 295 66 220 338 196 162 230 203 211 302 217 188 13 123 312 250 284 307 322 327 300 299 332 314 274 279 276 281 258 282 283 243
341 341 344 343 338 332 325 319 310 308 311 324 100 318 249 258 95 173 198 292 260 226 222 279 157 195 176 261 338 341 22 352 288 325 278 350 286 299 299 321 297 293 273 282 282
337 340 341 340 336 328 322 315 295 270 265 157 29 35 282 111 200 235 166 232 274 272 225 251 110 181 83 109 332 343 250 276 307 238 280 66 291 283 297 287 282 271 280 287 289
336 339 338 335 333 328 324 321 91 127 220 197 248 350 278 291 264 238 189 200 222 243 332 73 49 72 35 104 262 272 245 245 274 281 296 301 278 278 290 277 273 267 252 270 280
336 336 335 331 328 331 343 26 11 357 98 217 242 263 286 276 275 251 206 161 166 59 236 343 51 254 247 226 253 274 269 258 270 271 293 283 268 279 289 296 280 275 242 256 274
335 335 333 328 325 326 122 47 219 229 311 246 253 248 267 82 314 292 120 169 141 222 146 358 241 252 265 270 247 255 263 272 277 270 261 276 274 278 273 263 268 274 270 246 273
338 337 333 329 323 104 7 244 318 143 43 300 215 222 257 137 225 277 179 202 194 242 236 214 245 254 264 263 295 283 238 259 265 283 275 276 274 265 286 238 272 274 262 236 239
338 339 336 329 75 311 303 272 339 104 55 313 358 353 356 325 278 27 325 180 190 224 237 224 251 205 293 282 256 275 255 263 265 262 272 139 291 270 262 260 242 259 266 269 238
337 339 339 347 226 13 275 337 331 61 55 308 13 303 318 33 284 340 345 360 359 278 239 263 273 289 278 265 285 279 272 253 255 263 280 202 272 184 196 263 253 246 257 258 247
337 335 337 87 16 251 318 330 59 44 329 345 7 326 5 358 350 304 9 36 287 336 340 261 256 225 241 311 65 331 333 300 93 161 258 239 225 259 246 248 271 233 251 265 273
335 332 311 151 259 322 337 45 43 80 345 331 303 327 312 355 340 352 351 7 21 355 320 312 284 306 42 0 328 31 37 326 309 234 261 208 228 244 260 239 225 249 263 257 262
332 331 216 231 10 4 42 52 69 252 226 257 269 304 295 351 277 319 332 295 263 158 284 330 327 14 3 300 252 282 168 192 281 253 272 333 254 255 231 252 263 260 273 283 287
328 334 335 300 171 82 64 51 202 304 287 283 318 267 275 305 275 355 270 254 198 193 167 309 264 310 293 293 184 205 196 185 251 242 268 222 271 295 261 260 234 274 289 297 291
349 342 288 310 134 65 73 241 246 258 308 274 253 248 279 281 290 324 293 238 192 195 170 246 286 275 296 325 265 193 183 211 202 249 250 276 249 243 256 249 3 323 319 305 300
22 13 268 342 56 48 119 231 283 295 328 279 250 258 244 272 248 242 258 282 191 213 186 189 228 283 328 216 230 9 252 227 243 234 255 289 251 233 245 199 249 276 277 274 272
6 346 316 8 46 30 344 296 288 300 323 288 311 242 244 264 249 248 229 221 208 183 204 202 227 264 274 271 284 268 252 234 243 229 232 282 262 274 208 277 313 302 291 292 269
355 270 322 54 58 331 317 306 265 316 305 352 292 251 273 285 331 224 247 256 278 179 215 176 226 302 312 352 27 228 188 216 234 250 238 251 257 107 302 313 306 301 277 279 283
29 353 327 41 67 101 325 276 304 302 288 341 285 337 344 291 219 279 292 303 188 246 261 184 250 236 256 267 272 277 270 272 244 243 261 240 270 268 286 299 302 292 275 266 257
30 304 182 309 326 324 223 268 302 343 308 340 323 339 305 286 269 254 250 293 276 285 318 183 256 214 245 260 267 267 275 280 269 260 256 272 266 261 259 294 299 289 284 266 268
28 11 358 276 289 304 284 277 306 315 271 283 301 300 291 249 222 296 301 301 258 291 263 40 280 297 271 260 261 268 263 277 273 287 300 283 269 297 326 326 316 318 311 289 267
316 99 133 267 310 348 250 273 313 312 277 259 314 286 285 263 279 285 278 269 239 215 118 151 269 278 267 334 308 252 165 310 311 295 307 291 310 314 314 309 300 293 283 277 273